Previsão horária em Ali-Yurt

Hoje, 19 Junho, Sábado

Tempo Temperatura Precipitação Vento Pressão Humidade
00:00 +18°C° 0 mm 1 m/s 703 mmHg 79%
01:00 +18°C° 0 mm 1 m/s 703 mmHg 78%
02:00 +16°C° 0 mm 1 m/s 703 mmHg 77%
03:00 +16°C° 0 mm 1 m/s 702 mmHg 77%
04:00 +18°C° 0 mm 1 m/s 703 mmHg 76%
05:00 +19°C° 0 mm 1 m/s 703 mmHg 75%
06:00 +18°C° 0 mm 0 m/s 703 mmHg 74%
07:00 +22°C° 0 mm 1 m/s 703 mmHg 70%
08:00 +24°C° 0 mm 2 m/s 702 mmHg 65%
09:00 +26°C° 0 mm 2 m/s 703 mmHg 59%
10:00 +27°C° 0 mm 3 m/s 703 mmHg 56%
11:00 +28°C° 0 mm 3 m/s 703 mmHg 53%
12:00 +29°C° 0 mm 4 m/s 702 mmHg 51%
13:00 +30°C° 0 mm 4 m/s 702 mmHg 48%
14:00 +32°C° 0 mm 4 m/s 702 mmHg 46%
15:00 +33°C° 0 mm 4 m/s 702 mmHg 43%
16:00 +30°C° 0 mm 3 m/s 701 mmHg 47%
17:00 +28°C° 0 mm 3 m/s 701 mmHg 51%
18:00 +26°C° 0 mm 3 m/s 701 mmHg 54%
19:00 +25°C° 0 mm 3 m/s 701 mmHg 55%
20:00 +23°C° 0 mm 2 m/s 701 mmHg 56%
21:00 +20°C° 0 mm 2 m/s 701 mmHg 57%
22:00 +19°C° 0 mm 2 m/s 701 mmHg 58%
23:00 +20°C° 0 mm 1 m/s 701 mmHg 59%

Amanhã, 20 Junho, Domingo

Tempo Temperatura Precipitação Vento Pressão Humidade
00:00 +19°C° 0 mm 1 m/s 700 mmHg 60%
01:00 +19°C° 0 mm 1 m/s 700 mmHg 60%
02:00 +19°C° 0 mm 1 m/s 700 mmHg 60%
03:00 +19°C° 0 mm 1 m/s 700 mmHg 60%
04:00 +19°C° 0 mm 1 m/s 700 mmHg 61%
05:00 +20°C° 0 mm 1 m/s 700 mmHg 62%
06:00 +20°C° 0 mm 1 m/s 700 mmHg 63%
07:00 +22°C° 0 mm 1 m/s 700 mmHg 60%
08:00 +24°C° 0 mm 1 m/s 700 mmHg 56%
09:00 +26°C° 0 mm 1 m/s 700 mmHg 52%
10:00 +27°C° 0 mm 1 m/s 700 mmHg 50%
11:00 +28°C° 0 mm 2 m/s 701 mmHg 48%
12:00 +29°C° 0 mm 2 m/s 701 mmHg 45%
13:00 +30°C° 0 mm 2 m/s 701 mmHg 45%
14:00 +31°C° 0 mm 2 m/s 701 mmHg 44%
15:00 +31°C° 0 mm 2 m/s 701 mmHg 44%
16:00 +30°C° 0 mm 2 m/s 701 mmHg 50%
17:00 +29°C° 0 mm 2 m/s 701 mmHg 57%
18:00 +29°C° 0 mm 1 m/s 701 mmHg 63%
19:00 +27°C° 0 mm 1 m/s 701 mmHg 66%
20:00 +24°C° 0 mm 1 m/s 701 mmHg 69%
21:00 +22°C° 0 mm 1 m/s 701 mmHg 72%
22:00 +22°C° 0 mm 1 m/s 701 mmHg 71%
23:00 +20°C° 0 mm 2 m/s 700 mmHg 70%

Depois de amanhã, 21 Junho, Segunda-feira

Tempo Temperatura Precipitação Vento Pressão Humidade
00:00 +20°C° 0 mm 2 m/s 700 mmHg 68%
01:00 +20°C° 0 mm 2 m/s 700 mmHg 68%
02:00 +19°C° 0 mm 2 m/s 700 mmHg 67%
03:00 +19°C° 0 mm 2 m/s 700 mmHg 66%
04:00 +21°C° 0 mm 1 m/s 700 mmHg 66%
05:00 +21°C° 0 mm 1 m/s 700 mmHg 65%
06:00 +22°C° 0 mm 1 m/s 700 mmHg 65%
07:00 +24°C° 0 mm 1 m/s 701 mmHg 60%
08:00 +26°C° 0 mm 2 m/s 701 mmHg 56%
09:00 +28°C° 0 mm 2 m/s 701 mmHg 51%
10:00 +29°C° 0 mm 2 m/s 701 mmHg 48%
11:00 +30°C° 0 mm 3 m/s 701 mmHg 46%
12:00 +31°C° 0 mm 3 m/s 701 mmHg 43%
13:00 +33°C° 0 mm 3 m/s 701 mmHg 43%
14:00 +32°C° 0 mm 2 m/s 700 mmHg 43%
15:00 +32°C° 0 mm 2 m/s 700 mmHg 42%
16:00 +31°C° 0 mm 2 m/s 700 mmHg 47%
17:00 +31°C° 0 mm 2 m/s 700 mmHg 52%
18:00 +30°C° 0 mm 1 m/s 700 mmHg 57%
19:00 +27°C° 0 mm 1 m/s 700 mmHg 57%
20:00 +25°C° 0 mm 1 m/s 700 mmHg 56%
21:00 +23°C° 0 mm 1 m/s 700 mmHg 55%
22:00 +21°C° 0 mm 2 m/s 700 mmHg 54%
23:00 +21°C° 0 mm 2 m/s 700 mmHg 53%

22 Junho, Terça-feira

Tempo Temperatura Precipitação Vento Pressão Humidade
00:00 +20°C° 0 mm 2 m/s 699 mmHg 52%
01:00 +20°C° 0 mm 2 m/s 699 mmHg 53%
02:00 +20°C° 0 mm 2 m/s 699 mmHg 53%
03:00 +19°C° 0 mm 2 m/s 699 mmHg 54%
04:00 +20°C° 0 mm 2 m/s 700 mmHg 55%
05:00 +21°C° 0 mm 1 m/s 700 mmHg 56%
06:00 +21°C° 0 mm 1 m/s 700 mmHg 58%
07:00 +23°C° 0 mm 1 m/s 700 mmHg 54%
08:00 +25°C° 0 mm 1 m/s 701 mmHg 50%
09:00 +27°C° 0 mm 1 m/s 701 mmHg 46%
10:00 +29°C° 0 mm 1 m/s 701 mmHg 44%
11:00 +30°C° 0 mm 2 m/s 701 mmHg 43%
12:00 +31°C° 0 mm 2 m/s 701 mmHg 42%
13:00 +31°C° 0 mm 2 m/s 701 mmHg 41%
14:00 +32°C° 0 mm 2 m/s 701 mmHg 41%
15:00 +32°C° 0 mm 2 m/s 701 mmHg 40%
16:00 +32°C° 0 mm 2 m/s 701 mmHg 46%
17:00 +31°C° 0 mm 2 m/s 701 mmHg 51%
18:00 +30°C° 0 mm 1 m/s 700 mmHg 57%
19:00 +28°C° 0 mm 2 m/s 700 mmHg 58%
20:00 +26°C° 0 mm 2 m/s 700 mmHg 59%
21:00 +23°C° 0 mm 2 m/s 700 mmHg 60%
22:00 +23°C° 0 mm 2 m/s 700 mmHg 57%
23:00 +21°C° 0 mm 2 m/s 700 mmHg 55%

23 Junho, Quarta-feira

Tempo Temperatura Precipitação Vento Pressão Humidade
00:00 +21°C° 0 mm 2 m/s 700 mmHg 52%
01:00 +21°C° 0 mm 2 m/s 700 mmHg 51%
02:00 +20°C° 0 mm 2 m/s 700 mmHg 49%
03:00 +20°C° 0 mm 2 m/s 700 mmHg 47%
04:00 +20°C° 0 mm 2 m/s 700 mmHg 50%
05:00 +21°C° 0 mm 2 m/s 700 mmHg 52%
06:00 +22°C° 0 mm 1 m/s 700 mmHg 55%
07:00 +24°C° 0 mm 1 m/s 700 mmHg 51%
08:00 +26°C° 0 mm 1 m/s 700 mmHg 46%
09:00 +28°C° 0 mm 1 m/s 701 mmHg 42%
10:00 +29°C° 0 mm 2 m/s 701 mmHg 41%
11:00 +30°C° 0 mm 2 m/s 701 mmHg 40%
12:00 +31°C° 0 mm 2 m/s 702 mmHg 39%
13:00 +32°C° 0 mm 2 m/s 702 mmHg 40%
14:00 +32°C° 0 mm 2 m/s 702 mmHg 42%
15:00 +33°C° 0 mm 3 m/s 702 mmHg 43%
16:00 +31°C° 0 mm 2 m/s 702 mmHg 49%
17:00 +30°C° 0 mm 2 m/s 702 mmHg 56%
18:00 +29°C° 0 mm 2 m/s 702 mmHg 62%
19:00 +27°C° 0 mm 2 m/s 702 mmHg 66%
20:00 +25°C° 0 mm 2 m/s 702 mmHg 70%
21:00 +23°C° 0 mm 2 m/s 702 mmHg 75%
22:00 +23°C° 0 mm 2 m/s 702 mmHg 71%
23:00 +21°C° 0 mm 2 m/s 702 mmHg 67%

24 Junho, Quinta-feira

Tempo Temperatura Precipitação Vento Pressão Humidade
00:00 +21°C° 0 mm 2 m/s 702 mmHg 64%
01:00 +21°C° 0 mm 2 m/s 702 mmHg 62%
02:00 +20°C° 0 mm 2 m/s 702 mmHg 59%
03:00 +20°C° 0 mm 2 m/s 702 mmHg 57%
04:00 +22°C° 0 mm 1 m/s 702 mmHg 59%
05:00 +22°C° 0 mm 1 m/s 702 mmHg 60%
06:00 +23°C° 0 mm 1 m/s 702 mmHg 61%
07:00 +24°C° 0 mm 1 m/s 702 mmHg 60%
08:00 +26°C° 0 mm 1 m/s 703 mmHg 59%
09:00 +28°C° 0 mm 2 m/s 703 mmHg 58%
10:00 +29°C° 0 mm 2 m/s 703 mmHg 56%
11:00 +30°C° 0 mm 2 m/s 703 mmHg 53%
12:00 +31°C° 0 mm 2 m/s 703 mmHg 51%
13:00 +31°C° 0 mm 3 m/s 703 mmHg 51%
14:00 +31°C° 0 mm 3 m/s 703 mmHg 51%
15:00 +31°C° 0 mm 3 m/s 703 mmHg 51%
16:00 +30°C° 0.1 mm 3 m/s 703 mmHg 56%
17:00 +30°C° 0.1 mm 2 m/s 703 mmHg 61%
18:00 +29°C° 0.1 mm 2 m/s 703 mmHg 66%
19:00 +27°C° 0.1 mm 2 m/s 703 mmHg 71%
20:00 +25°C° 0.1 mm 1 m/s 703 mmHg 76%
21:00 +23°C° 0.1 mm 1 m/s 703 mmHg 81%
22:00 +23°C° 0 mm 1 m/s 703 mmHg 79%
23:00 +21°C° 0 mm 2 m/s 702 mmHg 76%
Mostrar mais